Regional Weather Roundup
Issued by NWS Grand Forks, ND

Home | Current Version | Previous Version | Graphics & Text | Print | Product List | Glossary On
Versions: 1 2 3 4 5 6 7 8 9 10 11 12 13 14 15 16 17 18 19 20 21 22 23 24 25 26 27 28 29 30 31 32 33 34 35 36 37 38 39 40 41 42 43 44 45 46 47 48 49 50
683
ASUS43 KFGF 221331
RWRFGF
PRAIRIE TO PINES  WEATHER ROUNDUP
NATIONAL WEATHER SERVICE EASTERN NORTH DAKOTA/GRAND FORKS ND
800 AM CDT FRI MAY 22 2015

 **SATELLITE DATA USED TO AUGMENT SKY COVER AT AUTOMATED STATIONS**
 *****  WEATHER ACROSS EASTERN NORTH DAKOTA  *****

CITY           SKY/WX    TMP DP  RH WIND       PRES   REMARKS
GRAND FORKS    SUNNY     52  42  69 SW5       30.18R
GRAND FRKS AFB SUNNY     54  41  62 SW6       30.18R
GRAND FRKS NWS   N/A     54 N/A N/A S7          N/A
DEVILS LAKE    SUNNY     55  41  58 SW7       30.17S
FARGO          SUNNY     53  44  71 CALM      30.19S
WAHPETON ARPT  SUNNY     54  41  62 CALM      30.19F
$$

 ***** WEATHER ACROSS CENTRAL AND WESTERN NORTH DAKOTA  *****

CITY           SKY/WX    TMP DP  RH WIND       PRES   REMARKS
BISMARCK       SUNNY     50  43  77 CALM      30.17R
MINOT          SUNNY     56  38  50 S5        30.14S
JAMESTOWN      SUNNY     53  44  71 SE5       30.18S
MINOT AFB      SUNNY     55  47  76 S2        30.13S
GARRISON         N/A     52  42  69 CALM      30.15R
WILLISTON      SUNNY     51  39  63 NE3       30.13S
DICKINSON      SUNNY     50  37  61 SE6       30.12S
HETTINGER      MOSUNNY   48  38  68 SE3       30.14S
$$

 *****  OTHER AIRPORT OBSERVATIONS IN OUR AREA  *****

CITY           SKY/WX    TMP DP  RH WIND       PRES   REMARKS
WALHALLA       FAIR      63  36  36 W10G16    30.14S
GRAFTON AIRPOR FAIR      54  43  66 SW7       30.18S
VALLEY CITY AR FAIR      52  45  76 CALM      30.19S
CANDO          FAIR      55  41  58 CALM      30.17S
CAVALIER APRT  FAIR      55  43  62 SW7       30.15S
GWINNER        NOT AVBL
SHEYENNE NWR     N/A     56  47  71 CALM      29.95S
ROLLA          FAIR      61  32  33 SW12      30.16S
 ***** THE ABOVE OBSERVATIONS ARE NON NWS ARE NOT QUALITY
       CONTROLLED AND MAY MIS-REPORT RAIN FOR SNOW...
$$

  *****  WEATHER ACROSS NORTHERN MINNESOTA  *****

CITY           SKY/WX    TMP DP  RH WIND       PRES   REMARKS
FLAG ISLAND    MOSUNNY   52  45  76 S3        30.16R
WARROAD        SUNNY     52  43  71 CALM      30.18S
ROSEAU         SUNNY     54  43  66 S3        30.18R
HALLOCK        SUNNY     54  43  66 S8        30.16S
THF RVR FALLS  SUNNY     54  37  54 CALM      30.20R
BAUDETTE       SUNNY     48  41  76 CALM      30.18R
WASKISH        SUNNY     52  48  87 CALM      30.19S
CROOKSTON      SUNNY     54  39  58 S5        30.20S
STEPHEN NDAWN    N/A     54  43  66 SW8         N/A
GREENBUSH NDAW   N/A     52  39  62 S5          N/A
$$
  *****  WEATHER ACROSS CENTRAL AND WEST MINNESOTA  *****

CITY           SKY/WX    TMP DP  RH WIND       PRES   REMARKS
FOSSTON        SUNNY     54  39  58 CALM      30.20S
BEMIDJI        SUNNY     50  39  65 CALM      30.20S
PARK RAPIDS    SUNNY     50  43  77 CALM      30.20R
ELBOW LAKE     FAIR      55  42  63 CALM      30.19S
WADENA         SUNNY     52  43  71 CALM      30.20S
DETROIT LAKES  SUNNY     54  46  76 CALM      30.21S
MOORHEAD       SUNNY     54  45  71 CALM      30.21S
FERGUS FALLS   SUNNY     55  43  62 CALM      30.21S
MORRIS MN      SUNNY     55  43  62 CALM      30.19R
STAPLES        SUNNY     52  43  71 CALM      30.21S
$$
  *****  WEATHER ELSEWHERE ACROSS MINNESOTA  *****

CITY           SKY/WX    TMP DP  RH WIND       PRES   REMARKS
DULUTH         SUNNY     52  28  39 E3        30.20R
INTRNTL FALLS  SUNNY     48  38  68 CALM      30.19R
ELY            SUNNY     48  34  57 CALM      30.20S
CLOQUET        SUNNY     52  32  46 CALM      30.21R
WHEATON        SUNNY     54  45  71 CALM      30.21S
BRAINERD       SUNNY     50  44  80 CALM      30.21R
HIBBING        SUNNY     48  36  63 CALM      30.20R
ALEXANDRIA     SUNNY     56  41  57 MISG      30.20S
SAINT CLOUD    SUNNY     52  42  69 CALM      30.21R
MINNEAPOLIS    SUNNY     56  39  53 VRB3      30.21R
$$

  *****  WEATHER ACROSS SOUTH DAKOTA  *****

CITY           SKY/WX    TMP DP  RH WIND       PRES   REMARKS
SIOUX FALLS    MOSUNNY   53  44  71 CALM      30.20R
BROOKINGS      SUNNY     54  45  71 CALM      30.21S
WATERTOWN      SUNNY     52  43  71 CALM      30.19S
HURON          SUNNY     52  42  69 SE3       30.19R
SISSETON         N/A     56  44  64 CALM      30.18S
ABERDEEN       SUNNY     54  42  64 SE3       30.18R
MITCHELL       SUNNY     52  44  74 S6        30.20R
PIERRE         MOSUNNY   48  41  76 E3        30.15S
MOBRIDGE       MOSUNNY   51  45  79 CALM      30.14S
RAPID CITY     CLOUDY    52  46  80 SE10      30.09S
$$

  *****  SOME WEATHER IN NEARBY STATES *****

CITY           SKY/WX    TMP DP  RH WIND       PRES   REMARKS
GLASGOW MT     SUNNY     51  34  52 E13       30.06R
GREAT FALLS MT SUNNY     48  42  80 CALM      29.96R
CHEYENNE WY    RAIN      42  41  96 SE12      30.04R VSB 3/4
SCOTTSBLUFF NE CLOUDY    49  45  86 E15G21    30.07S
OMAHA NE       CLOUDY    55  47  74 CALM      30.22R
DES MOINES IA  PTSUNNY   57  44  62 NW3       30.20R
DAVENPORT IA     N/A     56  42  59 N3        30.18R
CHICAGO IL     SUNNY     54  38  54 NE9       30.17R
EAU CLAIRE WI  SUNNY     52  39  61 NE6       30.19R
LA CROSSE WI   SUNNY     52  43  71 SE3       30.19R
$$

  *****  SOME NATIONAL WEATHER *****

CITY           SKY/WX    TMP DP  RH WIND       PRES   REMARKS
LA GUARDIA NY  SUNNY     61  41  47 NW10      29.91S
RALEIGH NC     MOSUNNY   60  46  59 VRB5      30.18R
ATLANTA GA     MOSUNNY   58  46  64 N8        30.19R
NEW ORLEANS LA CLOUDY    68  62  81 NE16      30.17R
OKLAHOMA CITY  RAIN      54  53  97 W3        30.23R FOG
ALBUQUERQUE NM PTSUNNY   50  44  80 N3        30.12R
SALT LAKE CITY MOCLDY    52  44  74 S7        29.91R
LOS ANGELES CA MOCLDY    57  51  80 W15       29.99R
BOISE ID       PTCLDY    52  46  80 SE5       29.88R
SEATTLE WA     CLOUDY    53  50  89 SW8       29.96R
$$

*** WEATHER ACROSS MANITOBA...SASKATCHEWAN AND ONTARIO ***
                ***ONTARIO***

CITY           SKY/WX    TMP DP  RH WIND       PRES   REMARKS
GERALDTON      MOSUNNY   34  21  60 W8        30.21R
THUNDER BAY    SUNNY     41  30  65 E3        30.24R
SIOUX LOOKOUT  SUNNY     45  28  53 SW3       30.18R
TORONTO        MOSUNNY   52  36  54 N10       30.03R
BIG TROUT LK   SUNNY     36  27  69 SW6       30.14S
PICKLE LAKE    SUNNY     43  23  45 W5        30.17R
DRYDEN         SUNNY     48  32  53 S6        30.17S
KENORA         MOSUNNY   52  32  46 S8        30.17
$$
                *** MANITOBA***

CITY           SKY/WX    TMP DP  RH WIND       PRES   REMARKS
BRANDON        MOSUNNY   54  43  66 W10       30.14R
DAUPHIN        SUNNY     61  41  48 W16G22    30.09R
ISLAND LAKE    MOSUNNY   48  25  40 SE5       30.05
PILOT MOUND      N/A     54  39  58 SW5         N/A
THE PAS        CLOUDY    61  37  41 W10       29.96S
THOMPSON       PTSUNNY   50  34  53 SW8       29.92F
WINNIPEG       MOSUNNY   54  39  58 S9        30.13S
LYNN LAKE      PTSUNNY   59  34  38 N7        29.92S
CHURCHILL      PTSUNNY   48  30  49 SW13      29.85F
GILLAM         MOSUNNY   50  25  37 S14       29.98F
$$
                ***SASKATCHEWAN***

CITY           SKY/WX    TMP DP  RH WIND       PRES   REMARKS
ESTEVAN        SUNNY     54  43  66 S6        30.14R
KINDERSLEY     SUNNY     54  32  43 S5        30.06R
LLOYDMINSTER   SUNNY     54  32  43 SW7       30.03R
PRINCE ALBERT  MOSUNNY   54  41  62 VRB2      30.06R
REGINA         SUNNY     50  39  66 SE7       30.13R
YORKTON        SUNNY     54  43  66 VRB2      30.11S
N. BATTLEFORD  SUNNY     55  39  54 E3        30.08S
LA RONGE       MOSUNNY   57  39  51 SW3       29.98S
SASKATOON      SUNNY     52  39  62 VRB2      30.10R
SWIFT CURRENT  SUNNY     52  36  54 SE7       30.08S
$$
NOTE: THESE ARE AUTOMATED STATIONS WITH LIMITED QUALITY CONTROL
      "FAIR" INDICATES FEW OR NO CLOUDS BELOW 12,000 FEET WITH NO
      SIGNIFICANT WEATHER AND/OR OBSTRUCTIONS TO VISIBILITY.
      SKY/WX - SKY CONDITION AND SIGNIFICANT WEATHER.
      TMP - AIR TEMPERATURE.    DP   - DEWPOINT TEMPERATURE.
      RH  - RELATIVE HUMIDITY.  PRES - PRESSURE.
      HX  - HEAT INDEX.         WCI  - WIND CHILL INDEX.
$



USA.gov is the U.S. government's official web portal to all federal, state and local government web resources and services.